SCP
0 0 0 0 0 0 0 0 0 0 0 0 0 0 0 0 0 0 0 0 0 0 0 0 -0 -1 -1 -1 -0 -0 -0 -0 0 0 0 0 0 0 0 0 0 0 0 0 0 0 -0 0 0
0 0 0 0 0 0 0 -0 0 0 0 0 -0 0 0 0 0 0 0 0 0 0 0 0 -0 -0 -0 -0 -0 -0 -0 0 0 0 0 0 0 0 0 0 0 0 0 -0 -0 -0 0 0 0
0 0 0 0 0 0 0 0 0 0 0 0 0 0 0 0 0 0 -0 0 0 0 0 0 -0 -0 -0 -0 -0 -0 0 0 0 0 0 0 0 0 0 0 0 -0 -0 -0 -0 -0 0 0 0
0 0 0 0 0 0 0 0 0 0 0 0 -0 0 0 0 0 -0 -0 0 0 0 0 0 0 0 0 0 -0 -0 -0 0 0 0 0 0 0 0 0 0 0 0 -0 -0 -0 -0 0 0 0
0 0 0 0 0 0 -0 0 0 0 0 0 -0 0 0 0 0 0 -0 -0 0 0 0 1 0 0 0 0 0 0 -0 0 0 0 0 0 0 0 0 0 0 0 0 -0 -0 -0 0 0 0
0 0 0 0 0 0 -0 0 0 0 0 0 -0 0 0 0 0 -0 0 0 0 0 1 1 1 1 0 0 0 0 0 -0 -0 -0 -0 0 0 0 0 0 0 0 0 -0 -0 -0 0 0 0
0 0 0 0 0 0 0 0 0 0 0 0 0 -0 0 0 0 0 -0 0 0 1 1 2 2 1 1 0 0 0 0 0 -0 -0 -0 -0 -0 -0 -0 -0 -0 -0 -0 0 -0 0 0 0 0
0 0 0 0 0 0 0 -0 0 0 0 0 0 0 0 0 0 0 0 0 0 2 1 2 3 2 1 1 1 0 0 0 0 -0 -0 -0 -0 -0 -0 -0 -0 -0 -0 -0 0 0 0 0 0
0 0 0 0 0 0 0 -0 0 0 0 0 0 0 0 0 0 0 0 1 2 2 2 2 3 3 2 1 1 1 0 0 0 0 -0 -0 -0 -0 -0 -0 -0 -0 -0 -0 0 0 0 0 0
0 0 0 0 0 0 0 -0 -0 0 0 0 0 0 0 0 0 0 0 1 2 1 1 1 2 3 2 1 1 1 1 1 1 0 0 0 -0 -0 -0 -0 -0 -0 0 0 0 0 -0 0 0
0 0 0 0 0 0 0 0 0 0 0 0 0 0 0 0 0 0 0 -0 -0 1 1 1 2 2 3 3 2 2 1 1 1 0 0 0 0 -0 -0 -0 -0 -0 0 0 0 0 0 0 0
0 0 0 0 0 0 0 0 0 0 0 0 0 0 0 0 0 0 0 0 0 0 0 1 1 1 2 3 2 1 1 1 1 1 0 0 0 0 -0 0 0 0 0 0 0 0 0 0 0
0 0 0 0 0 0 0 0 0 0 0 0 0 0 0 0 0 0 0 0 0 0 0 1 1 1 1 2 3 2 1 1 1 0 0 0 0 0 0 0 0 0 0 0 0 0 0 0 0
0 0 0 0 0 0 0 0 0 0 0 0 0 0 0 0 0 0 0 0 0 0 0 0 1 1 1 1 1 2 2 1 1 0 0 0 0 0 0 0 0 0 0 0 0 0 0 0 0
0 0 0 0 0 0 0 0 0 0 0 0 0 0 0 0 0 0 0 0 0 0 0 1 1 1 1 1 1 1 1 1 1 1 0 0 0 0 0 0 0 0 0 0 0 0 0 0 0
0 0 0 0 0 0 0 0 -0 0 -0 0 0 0 0 0 0 0 0 0 0 0 0 0 2 1 1 1 1 1 1 1 1 1 1 1 0 0 0 0 0 0 0 0 0 0 0 0 0
0 0 0 0 0 0 0 0 -0 0 0 0 0 0 0 0 0 0 0 0 0 0 0 1 1 3 1 3 3 2 1 1 1 1 1 0 1 1 0 0 0 0 0 0 0 0 0 0 0
0 0 0 0 0 0 0 0 0 0 0 0 0 0 0 0 0 0 0 0 0 0 0 0 1 2 4 4 5 5 4 2 1 1 1 1 1 1 2 1 1 1 1 0 0 0 0 0 0
0 0 0 0 0 0 -0 0 -0 0 0 0 0 0 0 0 0 0 0 0 0 0 0 0 2 3 3 5 4 3 5 5 4 2 2 2 2 1 1 2 2 1 1 1 0 0 0 0 0
0 0 0 0 0 0 0 0 -0 0 0 0 0 0 0 0 0 0 0 0 0 0 0 0 0 1 3 3 3 2 2 3 5 3 2 1 3 3 1 1 1 2 2 1 0 0 0 0 0
0 0 0 0 0 0 0 -0 0 -0 0 0 0 0 0 0 0 0 0 0 0 0 0 0 0 0 0 1 3 2 1 1 2 2 2 1 1 4 3 2 2 1 1 1 1 0 0 0 0
0 0 0 0 0 0 0 0 0 -0 0 0 0 0 0 0 0 0 0 0 0 0 0 0 0 0 0 0 0 2 1 1 0 0 1 2 2 1 2 2 2 2 2 2 1 1 0 0 0
-0 0 0 0 0 0 0 0 -0 0 0 0 0 0 0 0 0 0 0 0 0 0 0 0 0 0 0 0 0 0 0 0 -0 0 1 1 2 2 3 2 2 3 2 2 1 1 0 0 0
-0 0 0 0 0 0 0 0 -0 0 0 -0 0 0 0 -0 0 0 0 0 0 0 0 0 0 0 0 0 0 0 0 0 0 0 1 1 1 1 1 2 1 2 1 1 2 1 0 0 1
0 0 0 0 0 0 0 0 0 0 0 0 0 0 0 0 0 0 0 0 0 0 0 0 0 0 0 0 0 0 0 0 0 0 0 1 1 1 1 1 3 2 2 2 1 1 0 0 1
0 0 0 0 0 0 0 0 0 0 0 0 0 0 0 0 0 0 0 0 0 0 0 0 0 0 0 0 0 0 0 0 0 0 0 0 0 0 0 1 1 1 3 3 2 2 1 1 0
0 0 0 0 0 0 0 0 0 0 0 0 0 0 0 0 0 0 0 0 0 0 0 0 0 0 0 0 0 0 0 0 0 0 0 0 0 0 0 0 1 0 0 0 0 0 0 0 0
0 0 0 0 0 0 0 0 0 0 0 0 0 0 0 0 0 0 0 0 0 0 0 0 0 0 0 0 0 0 0 0 0 0 0 0 0 0 0 0 1 1 1 0 0 1 0 0 0
0 0 0 0 0 0 0 0 0 0 0 0 0 0 0 0 0 0 0 0 0 0 0 0 0 0 0 0 0 0 0 0 0 0 0 0 0 0 0 0 0 0 0 1 1 1 0 0 -0
0 0 0 0 0 0 0 0 0 0 0 0 0 0 0 0 0 0 0 0 0 0 0 0 0 0 0 0 0 0 0 0 0 0 0 0 0 0 0 0 0 0 0 0 1 1 0 0 0
Wind_Speed_500mb
20 21 23 12 6 7 9 5 4 16 21 19 31 30 17 18 11 10 19 37 27 54 54 57 60 60 56 51 48 45 46 46 50 53 54 51 46 42 39 37 35 34 32 29 27 25 24 23 22
21 22 11 2 6 1 10 4 11 9 18 15 31 43 38 9 28 26 29 30 40 44 51 56 59 59 57 55 52 47 47 48 52 57 56 51 47 43 40 38 35 33 30 27 25 24 23 21 19
19 19 7 6 6 10 7 8 10 33 26 34 10 17 9 10 18 12 24 34 41 41 47 52 58 59 57 57 57 56 54 55 55 54 54 51 46 42 40 37 34 31 27 25 23 21 19 18 16
12 8 4 5 14 17 7 22 15 26 27 35 26 10 18 19 7 16 22 22 30 38 47 48 57 60 59 59 60 62 60 59 59 56 52 48 46 43 38 35 31 28 24 22 19 17 15 13 11
10 6 1 4 13 16 13 25 31 28 17 28 45 10 18 40 20 13 12 13 27 35 40 46 55 61 60 59 60 61 59 58 57 55 52 48 45 42 38 33 29 26 22 18 15 12 9 8 6
3 4 3 8 14 18 16 27 27 30 20 11 40 18 8 23 36 20 19 18 27 22 40 50 55 64 63 62 61 62 60 55 54 53 50 47 44 41 37 33 29 24 19 16 12 9 5 3 2
9 6 10 10 10 17 38 19 9 26 35 8 23 13 12 16 20 33 16 21 32 32 36 54 60 66 66 66 64 63 62 58 50 49 47 44 41 39 36 31 27 23 19 13 8 5 2 4 6
12 8 8 9 15 22 50 28 26 42 42 43 32 15 11 31 13 19 19 16 34 42 49 53 60 69 73 71 66 63 63 60 54 48 45 43 40 36 32 29 25 21 16 12 9 7 7 9 11
21 3 14 16 17 19 57 24 46 54 40 23 37 11 29 33 27 16 36 26 22 50 54 64 62 70 76 75 71 65 63 59 55 52 47 42 39 36 32 27 23 18 14 12 11 11 13 13 14
14 9 13 12 12 15 46 46 36 31 53 51 42 4 35 29 26 22 28 30 19 49 50 62 70 74 79 78 75 70 64 65 61 55 50 45 39 35 29 26 22 19 17 15 15 17 19 19 17
9 15 9 22 41 52 48 63 54 34 22 46 36 30 32 26 26 24 21 28 23 23 43 45 61 69 77 81 78 74 71 67 63 58 53 48 43 38 34 31 27 23 19 17 19 23 22 23 18
13 22 39 43 61 59 31 66 49 38 45 39 56 38 26 25 29 30 26 17 22 19 20 41 47 67 70 77 78 77 74 70 67 64 58 54 49 44 39 35 29 26 21 17 13 14 14 14 14
10 15 47 60 67 67 71 61 50 57 44 36 47 30 52 24 29 27 17 24 16 23 17 18 40 55 73 75 79 76 72 71 67 63 61 58 54 50 44 40 34 28 27 20 16 11 13 12 13
13 23 31 37 53 57 39 49 33 44 20 12 28 40 42 39 26 26 26 29 23 19 24 16 20 48 59 72 72 77 73 67 64 64 63 61 58 54 51 46 40 34 25 23 22 18 20 17 17
24 14 20 11 14 11 19 15 30 36 14 21 25 33 55 58 53 42 38 33 34 34 29 31 37 35 46 65 65 63 63 56 58 64 64 62 60 57 53 48 44 36 29 28 30 26 28 27 25
9 6 8 11 11 20 8 33 32 56 43 34 40 35 40 57 50 46 41 37 35 38 37 39 41 47 46 59 63 61 63 59 54 51 62 64 62 58 54 50 47 40 36 36 37 36 38 38 37
9 10 15 19 15 11 10 33 19 51 48 51 37 22 47 53 52 53 47 42 41 44 44 44 45 54 56 62 68 59 52 54 59 52 48 55 58 56 51 48 46 44 43 44 43 41 45 46 42
13 9 13 16 22 9 23 32 36 63 50 60 53 29 33 40 45 52 46 43 44 47 46 47 44 48 66 73 65 53 49 48 53 58 54 53 52 48 48 44 41 36 39 45 48 46 44 47 49
17 25 30 32 30 8 13 20 20 44 38 35 25 36 32 33 41 38 28 38 51 53 55 53 42 49 70 73 69 66 64 57 61 62 63 60 59 53 45 46 43 38 44 50 48 53 53 54 53
28 29 34 19 14 10 15 22 17 17 15 29 24 25 34 40 46 46 44 44 55 59 56 52 41 39 59 74 72 69 65 64 68 63 63 67 59 57 52 56 47 45 43 52 55 54 57 58 61
30 29 11 14 7 10 9 14 14 11 15 14 24 29 31 37 41 50 51 53 53 52 49 47 40 35 42 55 63 68 62 54 61 81 77 70 63 52 59 55 48 52 51 50 57 56 56 61 60
12 15 13 7 6 8 6 11 12 11 15 14 33 33 34 46 55 60 60 64 62 57 49 42 41 42 38 38 45 52 63 60 62 59 65 72 84 84 67 63 51 44 45 52 51 51 55 62 59
9 19 13 8 5 2 9 2 18 8 20 19 22 45 57 56 67 73 78 75 62 56 50 45 40 42 43 41 46 43 46 58 64 67 49 55 56 67 67 64 55 55 52 61 57 60 62 60 56
9 9 11 11 5 4 14 11 18 14 11 10 18 55 68 67 64 70 83 67 55 43 39 36 34 34 42 51 44 49 46 50 55 57 61 69 73 74 80 92 84 80 70 81 66 64 60 60 62
11 7 6 9 7 23 9 9 34 4 15 8 35 67 58 47 59 66 78 70 56 49 38 27 22 19 20 21 31 33 36 40 42 50 52 49 47 55 60 69 73 86 86 99 72 75 80 87 93
7 13 11 14 7 24 11 13 12 9 15 22 53 70 47 68 69 81 75 67 57 46 39 35 29 26 23 21 22 20 22 27 31 30 31 35 40 41 41 43 53 57 60 57 68 68 89 88 90
3 8 5 6 9 8 9 13 16 12 5 23 37 59 26 67 68 64 57 49 42 36 38 35 37 33 34 37 32 30 34 31 30 27 24 24 26 32 35 35 38 50 52 67 76 66 80 106 111
12 11 7 3 7 9 9 11 11 7 9 23 26 37 52 45 12 52 53 48 50 42 43 45 46 45 40 35 30 36 34 29 29 29 27 26 29 30 32 38 46 37 38 43 48 61 65 79 88
2 7 4 5 5 4 7 9 7 10 9 6 19 43 24 30 42 39 14 33 46 49 59 56 57 54 45 36 30 24 26 26 25 27 30 32 35 35 35 33 39 40 48 49 55 60 69 63 70
6 7 6 6 7 7 5 10 13 8 11 18 17 30 37 28 22 36 37 25 27 46 53 58 62 55 46 41 41 39 39 42 45 45 45 44 46 45 43 45 48 44 45 51 55 60 70 69 76
Wind_Direction_500mb
320 335 333 310 41 63 254 275 229 309 342 26 68 84 77 47 141 190 139 179 169 168 163 165 165 164 161 157 155 154 154 154 153 154 155 154 151 148 142 136 131 122 116 116 114 110 104 101 102
316 327 332 297 98 27 265 206 322 273 305 27 89 88 64 61 78 121 132 155 170 168 164 166 166 165 162 159 156 154 152 150 150 149 149 150 148 143 137 133 125 121 120 117 111 108 106 104 106
306 320 299 117 151 213 218 153 359 324 338 3 68 59 75 104 96 101 115 127 156 168 167 168 169 167 165 162 156 152 152 149 148 149 150 149 144 140 137 132 128 126 123 119 117 114 109 107 108
317 302 202 115 231 260 230 304 313 311 313 5 105 29 74 72 74 129 107 138 156 164 170 171 171 170 169 165 159 156 155 152 152 153 153 149 145 143 139 136 135 132 130 128 124 119 115 110 110
287 267 66 214 258 270 260 286 306 298 270 40 101 98 76 65 84 119 107 149 174 167 171 177 176 173 172 169 165 162 159 157 158 157 156 153 150 147 145 144 143 140 139 136 132 131 128 125 127
219 195 152 221 247 271 279 287 297 282 264 100 113 95 59 73 75 72 211 181 195 187 175 180 181 175 175 173 172 167 165 164 163 162 160 158 156 154 154 153 151 151 152 153 153 143 146 158 196
169 110 211 219 257 282 280 293 275 272 274 212 137 136 136 107 71 66 76 199 190 198 191 183 182 179 178 178 177 174 173 171 170 168 166 165 163 162 161 161 161 162 166 173 174 186 226 289 287
216 135 226 220 248 270 277 294 294 313 242 253 226 163 188 141 151 70 77 100 190 198 190 187 186 185 183 181 181 181 180 177 175 174 174 172 171 171 171 172 173 173 181 193 207 235 262 283 295
213 179 233 226 230 255 284 288 293 300 294 228 247 245 171 145 146 113 81 107 172 188 195 188 188 191 189 186 183 185 186 184 182 181 181 181 179 181 181 184 187 191 205 221 240 259 271 280 299
180 195 234 235 245 248 264 278 288 303 303 297 270 103 156 160 157 171 100 91 152 183 192 192 190 194 194 192 188 187 190 190 188 188 188 188 189 190 194 197 205 209 223 241 262 277 286 295 301
221 237 242 264 262 261 264 273 280 266 271 281 264 246 175 188 171 185 133 120 111 170 200 206 202 200 199 197 193 191 193 194 194 193 195 194 196 198 203 209 215 228 240 256 270 278 288 294 300
244 260 240 257 261 264 269 275 272 261 259 278 270 252 246 218 193 192 202 152 134 152 167 214 214 205 205 207 201 200 198 198 199 199 199 201 201 205 210 217 224 234 244 254 266 283 280 297 282
189 244 251 250 251 255 260 263 265 260 263 273 273 223 266 226 185 190 201 200 161 154 189 202 218 215 209 207 209 207 206 206 206 206 206 207 208 210 214 220 224 232 236 240 254 275 273 291 306
301 294 280 278 260 255 258 269 266 268 222 243 261 252 245 245 194 183 213 201 210 180 175 228 238 222 220 212 210 211 211 214 214 215 214 214 216 218 219 224 229 230 236 244 257 267 275 274 278
320 314 316 257 263 242 269 269 253 268 237 247 255 236 247 234 218 212 219 214 224 229 209 222 240 222 220 218 214 213 213 216 222 226 224 223 223 225 228 232 237 242 248 255 260 267 275 279 285
339 350 328 293 311 286 198 269 267 275 281 263 245 237 231 232 230 222 226 225 210 220 226 213 216 215 210 215 212 216 215 215 216 220 226 226 229 229 232 236 241 248 253 260 263 269 275 276 277
342 255 281 300 262 266 168 275 265 273 262 259 241 239 231 220 223 235 221 216 221 217 220 216 210 210 209 208 212 217 219 222 224 217 216 224 224 225 228 237 242 244 247 252 261 264 267 270 274
241 254 258 265 282 232 266 263 275 276 241 239 241 232 220 226 211 206 204 204 211 212 217 214 207 207 210 209 210 206 214 220 223 222 222 218 220 222 219 230 239 241 252 253 256 259 258 262 267
240 258 264 270 276 249 251 278 282 305 225 227 233 210 178 176 189 201 207 216 204 215 211 214 206 203 208 215 220 223 221 215 216 222 223 228 227 230 231 234 241 244 256 263 265 266 264 264 271
248 253 262 272 248 267 281 286 289 288 244 194 192 227 226 197 193 202 216 217 208 214 211 216 219 208 212 216 221 226 232 230 221 214 227 227 222 233 257 242 240 247 258 266 267 265 267 266 271
269 244 234 239 307 313 315 291 301 302 278 217 221 234 244 239 212 201 208 212 199 203 207 213 219 218 219 223 221 227 235 237 231 221 222 230 237 221 226 240 249 259 262 267 271 272 271 271 276
278 251 254 263 69 246 90 283 301 293 286 303 302 294 271 262 252 233 211 202 206 205 210 215 214 223 226 235 243 241 240 244 242 238 235 232 235 238 242 257 246 252 264 276 277 277 276 273 272
289 296 241 194 203 57 239 165 278 308 289 289 293 289 286 289 264 230 209 207 196 190 194 204 212 225 236 252 259 258 248 240 249 249 250 240 231 232 224 237 252 248 269 273 274 279 274 282 282
317 17 14 351 88 283 265 166 282 250 235 292 284 294 282 284 244 220 204 186 173 179 188 203 217 234 249 261 257 253 256 253 254 256 255 248 248 244 245 252 257 265 266 263 272 278 277 278 279
65 51 2 317 311 250 175 190 239 343 288 286 332 303 265 242 200 181 171 172 177 176 182 190 210 220 235 249 241 244 250 251 258 259 257 254 254 249 243 247 244 246 256 259 269 268 274 278 276
300 170 180 235 226 271 313 240 249 217 297 350 350 320 210 172 172 161 165 168 173 181 192 195 205 210 226 221 240 253 250 256 253 251 253 253 254 260 264 263 249 247 249 248 260 268 263 264 270
70 231 219 129 218 256 249 291 315 254 342 12 5 22 126 155 162 169 176 190 190 199 196 208 213 224 235 244 227 235 256 260 254 256 263 266 263 264 262 262 263 253 253 254 257 264 266 257 261
195 303 76 166 233 236 257 243 247 341 345 10 347 0 32 27 164 178 175 181 188 191 210 215 218 217 233 241 253 252 255 262 266 271 268 277 280 280 273 267 260 251 255 255 258 249 261 262 261
272 224 38 130 202 296 322 277 240 173 142 81 319 292 4 15 13 6 318 201 195 206 207 216 218 221 224 233 233 235 244 255 263 276 287 301 296 284 284 281 279 266 260 256 253 255 253 255 259
164 166 162 133 212 228 204 266 268 152 145 184 221 230 275 297 327 354 333 300 262 215 215 222 221 221 228 231 231 235 243 248 250 253 261 271 284 288 284 288 292 284 279 264 257 258 256 257 257
Wind_Speed_850mb
20 21 23 12 6 7 9 5 4 16 21 19 31 30 17 18 11 10 19 37 27 54 54 57 60 60 56 51 48 45 46 46 50 53 54 51 46 42 39 37 35 34 32 29 27 25 24 23 22
21 22 11 2 6 1 10 4 11 9 18 15 31 43 38 9 28 26 29 30 40 44 51 56 59 59 57 55 52 47 47 48 52 57 56 51 47 43 40 38 35 33 30 27 25 24 23 21 19
19 19 7 6 6 10 7 8 10 33 26 34 10 17 9 10 18 12 24 34 41 41 47 52 58 59 57 57 57 56 54 55 55 54 54 51 46 42 40 37 34 31 27 25 23 21 19 18 16
12 8 4 5 14 17 7 22 15 26 27 35 26 10 18 19 7 16 22 22 30 38 47 48 57 60 59 59 60 62 60 59 59 56 52 48 46 43 38 35 31 28 24 22 19 17 15 13 11
10 6 1 4 13 16 13 25 31 28 17 28 45 10 18 40 20 13 12 13 27 35 40 46 55 61 60 59 60 61 59 58 57 55 52 48 45 42 38 33 29 26 22 18 15 12 9 8 6
3 4 3 8 14 18 16 27 27 30 20 11 40 18 8 23 36 20 19 18 27 22 40 50 55 64 63 62 61 62 60 55 54 53 50 47 44 41 37 33 29 24 19 16 12 9 5 3 2
9 6 10 10 10 17 38 19 9 26 35 8 23 13 12 16 20 33 16 21 32 32 36 54 60 66 66 66 64 63 62 58 50 49 47 44 41 39 36 31 27 23 19 13 8 5 2 4 6
12 8 8 9 15 22 50 28 26 42 42 43 32 15 11 31 13 19 19 16 34 42 49 53 60 69 73 71 66 63 63 60 54 48 45 43 40 36 32 29 25 21 16 12 9 7 7 9 11
21 3 14 16 17 19 57 24 46 54 40 23 37 11 29 33 27 16 36 26 22 50 54 64 62 70 76 75 71 65 63 59 55 52 47 42 39 36 32 27 23 18 14 12 11 11 13 13 14
14 9 13 12 12 15 46 46 36 31 53 51 42 4 35 29 26 22 28 30 19 49 50 62 70 74 79 78 75 70 64 65 61 55 50 45 39 35 29 26 22 19 17 15 15 17 19 19 17
9 15 9 22 41 52 48 63 54 34 22 46 36 30 32 26 26 24 21 28 23 23 43 45 61 69 77 81 78 74 71 67 63 58 53 48 43 38 34 31 27 23 19 17 19 23 22 23 18
13 22 39 43 61 59 31 66 49 38 45 39 56 38 26 25 29 30 26 17 22 19 20 41 47 67 70 77 78 77 74 70 67 64 58 54 49 44 39 35 29 26 21 17 13 14 14 14 14
10 15 47 60 67 67 71 61 50 57 44 36 47 30 52 24 29 27 17 24 16 23 17 18 40 55 73 75 79 76 72 71 67 63 61 58 54 50 44 40 34 28 27 20 16 11 13 12 13
13 23 31 37 53 57 39 49 33 44 20 12 28 40 42 39 26 26 26 29 23 19 24 16 20 48 59 72 72 77 73 67 64 64 63 61 58 54 51 46 40 34 25 23 22 18 20 17 17
24 14 20 11 14 11 19 15 30 36 14 21 25 33 55 58 53 42 38 33 34 34 29 31 37 35 46 65 65 63 63 56 58 64 64 62 60 57 53 48 44 36 29 28 30 26 28 27 25
9 6 8 11 11 20 8 33 32 56 43 34 40 35 40 57 50 46 41 37 35 38 37 39 41 47 46 59 63 61 63 59 54 51 62 64 62 58 54 50 47 40 36 36 37 36 38 38 37
9 10 15 19 15 11 10 33 19 51 48 51 37 22 47 53 52 53 47 42 41 44 44 44 45 54 56 62 68 59 52 54 59 52 48 55 58 56 51 48 46 44 43 44 43 41 45 46 42
13 9 13 16 22 9 23 32 36 63 50 60 53 29 33 40 45 52 46 43 44 47 46 47 44 48 66 73 65 53 49 48 53 58 54 53 52 48 48 44 41 36 39 45 48 46 44 47 49
17 25 30 32 30 8 13 20 20 44 38 35 25 36 32 33 41 38 28 38 51 53 55 53 42 49 70 73 69 66 64 57 61 62 63 60 59 53 45 46 43 38 44 50 48 53 53 54 53
28 29 34 19 14 10 15 22 17 17 15 29 24 25 34 40 46 46 44 44 55 59 56 52 41 39 59 74 72 69 65 64 68 63 63 67 59 57 52 56 47 45 43 52 55 54 57 58 61
30 29 11 14 7 10 9 14 14 11 15 14 24 29 31 37 41 50 51 53 53 52 49 47 40 35 42 55 63 68 62 54 61 81 77 70 63 52 59 55 48 52 51 50 57 56 56 61 60
12 15 13 7 6 8 6 11 12 11 15 14 33 33 34 46 55 60 60 64 62 57 49 42 41 42 38 38 45 52 63 60 62 59 65 72 84 84 67 63 51 44 45 52 51 51 55 62 59
9 19 13 8 5 2 9 2 18 8 20 19 22 45 57 56 67 73 78 75 62 56 50 45 40 42 43 41 46 43 46 58 64 67 49 55 56 67 67 64 55 55 52 61 57 60 62 60 56
9 9 11 11 5 4 14 11 18 14 11 10 18 55 68 67 64 70 83 67 55 43 39 36 34 34 42 51 44 49 46 50 55 57 61 69 73 74 80 92 84 80 70 81 66 64 60 60 62
11 7 6 9 7 23 9 9 34 4 15 8 35 67 58 47 59 66 78 70 56 49 38 27 22 19 20 21 31 33 36 40 42 50 52 49 47 55 60 69 73 86 86 99 72 75 80 87 93
7 13 11 14 7 24 11 13 12 9 15 22 53 70 47 68 69 81 75 67 57 46 39 35 29 26 23 21 22 20 22 27 31 30 31 35 40 41 41 43 53 57 60 57 68 68 89 88 90
3 8 5 6 9 8 9 13 16 12 5 23 37 59 26 67 68 64 57 49 42 36 38 35 37 33 34 37 32 30 34 31 30 27 24 24 26 32 35 35 38 50 52 67 76 66 80 106 111
12 11 7 3 7 9 9 11 11 7 9 23 26 37 52 45 12 52 53 48 50 42 43 45 46 45 40 35 30 36 34 29 29 29 27 26 29 30 32 38 46 37 38 43 48 61 65 79 88
2 7 4 5 5 4 7 9 7 10 9 6 19 43 24 30 42 39 14 33 46 49 59 56 57 54 45 36 30 24 26 26 25 27 30 32 35 35 35 33 39 40 48 49 55 60 69 63 70
6 7 6 6 7 7 5 10 13 8 11 18 17 30 37 28 22 36 37 25 27 46 53 58 62 55 46 41 41 39 39 42 45 45 45 44 46 45 43 45 48 44 45 51 55 60 70 69 76
Wind_Direction_850mb
320 335 333 310 41 63 254 275 229 309 342 26 68 84 77 47 141 190 139 179 169 168 163 165 165 164 161 157 155 154 154 154 153 154 155 154 151 148 142 136 131 122 116 116 114 110 104 101 102
316 327 332 297 98 27 265 206 322 273 305 27 89 88 64 61 78 121 132 155 170 168 164 166 166 165 162 159 156 154 152 150 150 149 149 150 148 143 137 133 125 121 120 117 111 108 106 104 106
306 320 299 117 151 213 218 153 359 324 338 3 68 59 75 104 96 101 115 127 156 168 167 168 169 167 165 162 156 152 152 149 148 149 150 149 144 140 137 132 128 126 123 119 117 114 109 107 108
317 302 202 115 231 260 230 304 313 311 313 5 105 29 74 72 74 129 107 138 156 164 170 171 171 170 169 165 159 156 155 152 152 153 153 149 145 143 139 136 135 132 130 128 124 119 115 110 110
287 267 66 214 258 270 260 286 306 298 270 40 101 98 76 65 84 119 107 149 174 167 171 177 176 173 172 169 165 162 159 157 158 157 156 153 150 147 145 144 143 140 139 136 132 131 128 125 127
219 195 152 221 247 271 279 287 297 282 264 100 113 95 59 73 75 72 211 181 195 187 175 180 181 175 175 173 172 167 165 164 163 162 160 158 156 154 154 153 151 151 152 153 153 143 146 158 196
169 110 211 219 257 282 280 293 275 272 274 212 137 136 136 107 71 66 76 199 190 198 191 183 182 179 178 178 177 174 173 171 170 168 166 165 163 162 161 161 161 162 166 173 174 186 226 289 287
216 135 226 220 248 270 277 294 294 313 242 253 226 163 188 141 151 70 77 100 190 198 190 187 186 185 183 181 181 181 180 177 175 174 174 172 171 171 171 172 173 173 181 193 207 235 262 283 295
213 179 233 226 230 255 284 288 293 300 294 228 247 245 171 145 146 113 81 107 172 188 195 188 188 191 189 186 183 185 186 184 182 181 181 181 179 181 181 184 187 191 205 221 240 259 271 280 299
180 195 234 235 245 248 264 278 288 303 303 297 270 103 156 160 157 171 100 91 152 183 192 192 190 194 194 192 188 187 190 190 188 188 188 188 189 190 194 197 205 209 223 241 262 277 286 295 301
221 237 242 264 262 261 264 273 280 266 271 281 264 246 175 188 171 185 133 120 111 170 200 206 202 200 199 197 193 191 193 194 194 193 195 194 196 198 203 209 215 228 240 256 270 278 288 294 300
244 260 240 257 261 264 269 275 272 261 259 278 270 252 246 218 193 192 202 152 134 152 167 214 214 205 205 207 201 200 198 198 199 199 199 201 201 205 210 217 224 234 244 254 266 283 280 297 282
189 244 251 250 251 255 260 263 265 260 263 273 273 223 266 226 185 190 201 200 161 154 189 202 218 215 209 207 209 207 206 206 206 206 206 207 208 210 214 220 224 232 236 240 254 275 273 291 306
301 294 280 278 260 255 258 269 266 268 222 243 261 252 245 245 194 183 213 201 210 180 175 228 238 222 220 212 210 211 211 214 214 215 214 214 216 218 219 224 229 230 236 244 257 267 275 274 278
320 314 316 257 263 242 269 269 253 268 237 247 255 236 247 234 218 212 219 214 224 229 209 222 240 222 220 218 214 213 213 216 222 226 224 223 223 225 228 232 237 242 248 255 260 267 275 279 285
339 350 328 293 311 286 198 269 267 275 281 263 245 237 231 232 230 222 226 225 210 220 226 213 216 215 210 215 212 216 215 215 216 220 226 226 229 229 232 236 241 248 253 260 263 269 275 276 277
342 255 281 300 262 266 168 275 265 273 262 259 241 239 231 220 223 235 221 216 221 217 220 216 210 210 209 208 212 217 219 222 224 217 216 224 224 225 228 237 242 244 247 252 261 264 267 270 274
241 254 258 265 282 232 266 263 275 276 241 239 241 232 220 226 211 206 204 204 211 212 217 214 207 207 210 209 210 206 214 220 223 222 222 218 220 222 219 230 239 241 252 253 256 259 258 262 267
240 258 264 270 276 249 251 278 282 305 225 227 233 210 178 176 189 201 207 216 204 215 211 214 206 203 208 215 220 223 221 215 216 222 223 228 227 230 231 234 241 244 256 263 265 266 264 264 271
248 253 262 272 248 267 281 286 289 288 244 194 192 227 226 197 193 202 216 217 208 214 211 216 219 208 212 216 221 226 232 230 221 214 227 227 222 233 257 242 240 247 258 266 267 265 267 266 271
269 244 234 239 307 313 315 291 301 302 278 217 221 234 244 239 212 201 208 212 199 203 207 213 219 218 219 223 221 227 235 237 231 221 222 230 237 221 226 240 249 259 262 267 271 272 271 271 276
278 251 254 263 69 246 90 283 301 293 286 303 302 294 271 262 252 233 211 202 206 205 210 215 214 223 226 235 243 241 240 244 242 238 235 232 235 238 242 257 246 252 264 276 277 277 276 273 272
289 296 241 194 203 57 239 165 278 308 289 289 293 289 286 289 264 230 209 207 196 190 194 204 212 225 236 252 259 258 248 240 249 249 250 240 231 232 224 237 252 248 269 273 274 279 274 282 282
317 17 14 351 88 283 265 166 282 250 235 292 284 294 282 284 244 220 204 186 173 179 188 203 217 234 249 261 257 253 256 253 254 256 255 248 248 244 245 252 257 265 266 263 272 278 277 278 279
65 51 2 317 311 250 175 190 239 343 288 286 332 303 265 242 200 181 171 172 177 176 182 190 210 220 235 249 241 244 250 251 258 259 257 254 254 249 243 247 244 246 256 259 269 268 274 278 276
300 170 180 235 226 271 313 240 249 217 297 350 350 320 210 172 172 161 165 168 173 181 192 195 205 210 226 221 240 253 250 256 253 251 253 253 254 260 264 263 249 247 249 248 260 268 263 264 270
70 231 219 129 218 256 249 291 315 254 342 12 5 22 126 155 162 169 176 190 190 199 196 208 213 224 235 244 227 235 256 260 254 256 263 266 263 264 262 262 263 253 253 254 257 264 266 257 261
195 303 76 166 233 236 257 243 247 341 345 10 347 0 32 27 164 178 175 181 188 191 210 215 218 217 233 241 253 252 255 262 266 271 268 277 280 280 273 267 260 251 255 255 258 249 261 262 261
272 224 38 130 202 296 322 277 240 173 142 81 319 292 4 15 13 6 318 201 195 206 207 216 218 221 224 233 233 235 244 255 263 276 287 301 296 284 284 281 279 266 260 256 253 255 253 255 259
164 166 162 133 212 228 204 266 268 152 145 184 221 230 275 297 327 354 333 300 262 215 215 222 221 221 228 231 231 235 243 248 250 253 261 271 284 288 284 288 292 284 279 264 257 258 256 257 257